This is the latest recevied weather packets stored in our database for station/object KO4LFZ. If no packets are shown the sender has not sent any weather packets the latest 10 day(s).
| Time | Temp. | Humidity | Pressure | Rain* | Wind** | Luminosity | Snow |
|---|---|---|---|---|---|---|---|
| 1778003680 | 16.67° C | 99% | 1008.4 hPa | 0 mm | - | 75 W/m² | - |
| 1778003376 | 16.67° C | 99% | 1008.3 hPa | 0 mm | - | 221 W/m² | - |
| 1778003073 | 16.67° C | 99% | 1008.5 hPa | 0 mm | - | 116 W/m² | - |
| 1778002769 | 16.67° C | 99% | 1008.4 hPa | 0 mm | - | 98 W/m² | - |
| 1778002373 | 16.11° C | 99% | 1009.1 hPa | 1.78 mm | - | 74 W/m² | - |
| 1778002070 | 16.11° C | 99% | 1009.1 hPa | 1.78 mm | - | 74 W/m² | - |
| 1778001767 | 16.11° C | 99% | 1008.8 hPa | 0 mm | - | 63 W/m² | - |
| 1778001466 | 16.11° C | 99% | 1008.9 hPa | 1.27 mm | - | 49 W/m² | - |
| 1778001163 | 16.11° C | 99% | 1008.7 hPa | 3.05 mm | - | 85 W/m² | - |
| 1778000860 | 16.11° C | 99% | 1008.9 hPa | 3.05 mm | - | 51 W/m² | - |
| 1778000557 | 16.11° C | 99% | 1008.8 hPa | 1.27 mm | - | 53 W/m² | - |
| 1778000252 | 16.11° C | 99% | 1008.8 hPa | 0 mm | - | 68 W/m² | - |
| 1777999949 | 16.11° C | 99% | 1009 hPa | 0 mm | - | 72 W/m² | - |
| 1777999644 | 15.56° C | 99% | 1009.1 hPa | 0 mm | - | 69 W/m² | - |
| 1777999341 | 15.56° C | 99% | 1009 hPa | 0 mm | - | 56 W/m² | - |
| 1777999039 | 15.56° C | 99% | 1008.9 hPa | 0 mm | - | 75 W/m² | - |
| 1777998738 | 15.56° C | 99% | 1009.4 hPa | 0 mm | - | 49 W/m² | - |
| 1777998435 | 15.56° C | 99% | 1009.4 hPa | 0 mm | - | 49 W/m² | - |
| 1777998132 | 15.56° C | 99% | 1009 hPa | 0 mm | - | 70 W/m² | - |
| 1777997828 | 15.56° C | 99% | 1009 hPa | 0 mm | - | 42 W/m² | - |
| 1777997526 | 15.56° C | 99% | 1009.1 hPa | 0 mm | - | 40 W/m² | - |
| 1777997224 | 15.56° C | 99% | 1009 hPa | 0 mm | - | 53 W/m² | - |
| 1777996921 | 15.56° C | 99% | 1009.1 hPa | 0 mm | - | 59 W/m² | - |
| 1777996617 | 15.56° C | 99% | 1009.5 hPa | 0 mm | - | 134 W/m² | - |
| 1777996313 | 15.56° C | 99% | 1009.2 hPa | 0 mm | - | 113 W/m² | - |
* Rain latest hour (hover to see other rain measurements)
** Current wind speed in m/s (hover to see current wind gust speed)